Regional Weather Roundup
Issued by NWS

Home | Current Version | Previous Version | Graphics & Text | Print | Product List | Glossary On
Versions: 1 2 3 4 5 6 7 8 9 10 11 12 13 14 15 16 17 18 19 20 21 22 23 24 25 26 27 28 29 30 31 32 33 34 35 36 37 38 39 40 41 42 43 44 45 46 47 48 49 50
000
ASUS43 KOAX 132110
RWRNE

WEATHER ROUNDUP FOR NEBRASKA
NATIONAL WEATHER SERVICE OMAHA NE
300 PM CST SAT FEB 13 2016

NOTES: SATELLITE DATA IS BEING USED TO AUGMENT CLOUD COVER ABOVE
       12000 FEET.
       "FAIR" INDICATES FEW OR NO CLOUDS BELOW 12,000 FEET WITH NO
       SIGNIFICANT WEATHER AND/OR OBSTRUCTIONS TO VISIBILITY.

  * THESE STATIONS DO NOT REPORT WEATHER SUCH AS RAIN...SNOW OR FOG.

NEZ001>004-019>022-054>056-132200-
NEBRASKA PANHANDLE

CITY           SKY/WX    TMP DP  RH WIND       PRES   REMARKS
SCOTTSBLUFF    CLOUDY    51  32  48 CALM      29.87F
ALLIANCE       CLOUDY    41  33  73 S13       29.86F
CHADRON        CLOUDY    58  33  39 SW10      29.79F
KIMBALL        CLOUDY    61  21  21 W15G25    29.91F
SIDNEY         CLOUDY    41  35  79 S6        29.92F
$$

NEZ057>060-069>072-079>082-132200-
SOUTHWEST NEBRASKA

CITY           SKY/WX    TMP DP  RH WIND       PRES   REMARKS
NORTH PLATTE   CLOUDY    23  19  85 S16       30.06F WCI  10
IMPERIAL       CLOUDY    29  27  92 S13       30.02F WCI  19
LEXINGTON      CLOUDY    24  17  76 S13G18    30.13F WCI  12
MCCOOK         CLOUDY    27  22  81 S15       30.10F HAZE    WCI  15
OGALLALA       CLOUDY    31  28  90 S10       29.99F WCI  22
$$

NEZ005>010-023>029-035>040-094-132200-
NORTH CENTRAL NEBRASKA

CITY           SKY/WX    TMP DP  RH WIND       PRES   REMARKS
VALENTINE      CLOUDY    28  23  81 S20G33    29.94F WCI  15
AINSWORTH      CLOUDY    27  20  76 S23G29    30.01F WCI  12
BROKEN BOW     CLOUDY    22  17  81 S18       30.10F WCI   7
O`NEILL        CLOUDY    22  11  64 S23       30.13F WCI   6
ORD            CLOUDY    22  11  62 S15G22    30.15F WCI   9
THEDFORD       CLOUDY    25  23  92 S16G22    30.02F FOG     WCI  12
$$

NEZ041-046>049-061>064-073>077-083>087-132200-
SOUTH CENTRAL NEBRASKA

CITY           SKY/WX    TMP DP  RH WIND       PRES   REMARKS
GRAND ISLAND   CLOUDY    20   8  60 SE17      30.23F WCI   5
AURORA         CLOUDY    21   7  55 SE16      30.23F WCI   7
HASTINGS       CLOUDY    21   5  50 SE14      30.20F WCI   8
HEBRON         CLOUDY    24   4  42 SE12G18   30.26F WCI  13
HOLDREGE       CLOUDY    23  13  65 S15       30.15F WCI  10
KEARNEY *      CLOUDY    21   9  58 S13       30.19F WCI   9
YORK           CLOUDY    21   9  58 S13       30.26F WCI   9
$$

NEZ011>018-030>034-042>045-132200-
NORTHEAST NEBRASKA

CITY           SKY/WX    TMP DP  RH WIND       PRES   REMARKS
NORFOLK        CLOUDY    18   7  62 SE16      30.26F WCI   3
ALBION         CLOUDY    20   8  58 S16       30.22F WCI   6
BLAIR          CLOUDY    18   6  61 SE10      30.35F WCI   6
COLUMBUS *     CLOUDY    19   1  45 SE15      30.29F WCI   5
FREMONT        CLOUDY    17   5  58 SE15      30.34F WCI   3
TEKAMAH        CLOUDY    15   6  67 SE16      30.39F WCI  -1
WAYNE          CLOUDY    14   6  70 SE14      30.31F WCI   0
$$

NEZ050>053-065>068-078-088>093-132200-
SOUTHEAST NEBRASKA

CITY           SKY/WX    TMP DP  RH WIND       PRES   REMARKS
LINCOLN        CLOUDY    20   5  52 SE15      30.34F WCI   6
OMAHA EPPLEY   CLOUDY    18   5  57 SE15      30.40F WCI   4
BEATRICE       CLOUDY    22   4  47 SE12      30.32F WCI  10
FALLS CITY     CLOUDY    20   3  48 SE9       30.39F WCI   9
NEBRASKA CITY  CLOUDY    19   1  45 SE12      30.38F WCI   6
PLATTSMOUTH    CLOUDY    19   3  51 SE10      30.37F WCI   7
$$

NEZ044-045-051>053-067-132200-
OMAHA AREA

CITY           SKY/WX    TMP DP  RH WIND       PRES   REMARKS
OMAHA EPPLEY   CLOUDY    18   5  57 SE15      30.40F WCI   4
BLAIR          CLOUDY    18   6  61 SE10      30.35F WCI   6
FREMONT        CLOUDY    17   5  58 SE15      30.34F WCI   3
MILLARD        CLOUDY    19   5  53 SE12      30.37F WCI   7
OFFUTT AFB     CLOUDY    19   3  50 SE14      30.38F WCI   5
PLATTSMOUTH    CLOUDY    19   3  51 SE10      30.37F WCI   7
WAHOO          CLOUDY    19   8  62 SE14      30.34F WCI   5
$$



USA.gov is the U.S. government's official web portal to all federal, state and local government web resources and services.